Regional Weather Roundup
Issued by NWS Upton, NY

Current Version | Previous Version | Text Only | Print | Product List | Glossary On
Versions: 1 2 3 4 5 6 7 8 9 10 11 12 13 14 15 16 17 18 19 20 21 22 23 24 25 26 27 28 29 30 31 32 33 34 35 36 37 38 39 40 41 42 43 44 45 46 47 48 49 50
000
ASUS41 KOKX 261904
RWROKX

REGIONAL WEATHER ROUNDUP
NATIONAL WEATHER SERVICE NEW YORK NY
300 PM EDT THU MAY 26 2016

NOTE: "FAIR" INDICATES FEW OR NO CLOUDS BELOW 12,000 FEET WITH NO
SIGNIFICANT WEATHER AND/OR OBSTRUCTIONS TO VISIBILITY.

NYZ071-072-176-178-NJZ106-104-262000-
NEW YORK CITY METRO AREA


CITY           SKY/WX    TMP DP  RH WIND       PRES   REMARKS
CENTRAL PARK   SUNNY     88  51  28 CALM      30.07S
LAGUARDIA APRT PTSUNNY   90  61  37 S15       30.04S HX  90
KENNEDY INTL   PTSUNNY   81  53  37 S15       30.07S
NEWARK/LIBERTY PTSUNNY   91  46  21 S13       30.03F
BRNX BOT. GARD   N/A     90  52  27 SE9       30.06S
TETERBORO      SUNNY     92  43  18 S8        30.02S
$$

NYZ177-179-078>081-262000-
LONG ISLAND NEW YORK

CITY           SKY/WX    TMP DP  RH WIND       PRES   REMARKS
FARMINGDALE    MOSUNNY   83  55  38 SW17      30.07S
ISLIP          PTSUNNY   83  56  39 SW15      30.06F
SHIRLEY        MOSUNNY   82  58  43 S12       30.07F
RIVERHEAD        N/A     86  59  39 W3        30.05S
WESTHAMPTON    SUNNY    N/A N/A N/A SW12      30.09S
EAST HAMPTON   FAIR      79  54  41 S8        30.06F
MONTAUK POINT    N/A     76  59  55 VRB3      30.08F
$$

NYZ052-065-067-262000-
HUDSON VALLEY

CITY           SKY/WX    TMP DP  RH WIND       PRES   REMARKS
WHITE PLAINS   MOSUNNY   88  53  30 SE12      30.05S
NEWBURGH       MOSUNNY   86  54  32 CALM      30.06S
MONTGOMERY     SUNNY     87  56  34 W8        30.03F
POUGHKEEPSIE   PTSUNNY   90  52  27 SW8       30.02F
ALBANY         PTSUNNY   85  56  37 CALM      30.04F
$$

NJZ001-105-106-008-010-013-015-019>022-104-262000-
NEW JERSEY

CITY           SKY/WX    TMP DP  RH WIND       PRES   REMARKS
NEWARK/LIBERTY PTSUNNY   91  46  21 S13       30.03F
TETERBORO      SUNNY     92  43  18 S8        30.02S
CALDWELL       SUNNY     90  47  22 VRB6      30.04S
MORRISTOWN     MOSUNNY   90  46  22 S9        30.05S
SOMERVILLE     MOSUNNY   87  58  37 VRB3      30.03F
SUSSEX         MOSUNNY   88  50  27 SW8       30.05F
ANDOVER          N/A     86  50  28 VRB3      30.06S
TRENTON        SUNNY     88  46  23 SW10      30.05F
MILLVILLE      SUNNY     87  53  31 VRB6      30.07F
ATLANTIC CITY  SUNNY     87  51  28 S16G22    30.07S
WRIGHTSTOWN    MOSUNNY   90  49  24 W8        30.02F
TOMS RIVER     MOSUNNY   90  45  20 S14       30.05S
BELMAR         MOSUNNY   87  54  32 S12       30.07S
$$

PAZ047>061-062-071-262000-
EASTERN PENNSYLVANIA

CITY           SKY/WX    TMP DP  RH WIND       PRES   REMARKS
PHILADELPHIA   PTSUNNY   89  46  22 SW12      30.06F
ALLENTOWN      PTSUNNY   88  52  29 S8G16     30.05F
SCRANTON       MOSUNNY   87  54  32 SW13G21   30.04F
$$

CTZ002-004>006-009-010-012-RIZ004-006-007-MAZ004-011-015-262000-
SOUTHERN NEW ENGLAND
 IN CT

CITY           SKY/WX    TMP DP  RH WIND       PRES   REMARKS
BRADLEY INTL   LGT RAIN  87  56  34 S7        30.02F
HARTFORD       MOSUNNY   90  56  31 S13       30.02F
DANBURY        MOSUNNY   88  52  29 S3        30.06F
WTRBRY/OXFORD  PTSUNNY   84  55  37 S8        30.08
BRIDGEPORT     MOSUNNY   81  58  45 E7        30.05F
MERIDEN        CLOUDY    88  54  31 S10       30.04F
NEW HAVEN      MOSUNNY   86  56  35 SE8       30.05F
CHESTER        FAIR      86  54  32 S12       30.07S
GROTON         SUNNY     77  58  51 S8        30.06F
WILLIMANTIC    MOSUNNY   90  57  32 SW8       30.03F

 IN RI

CITY           SKY/WX    TMP DP  RH WIND       PRES   REMARKS
PROVIDENCE     PTSUNNY   81  57  43 S15       30.05F
BLOCK ISLAND   SUNNY     75  56  51 SW10      30.08F
WESTERLY       SUNNY     83  51  33 SW10      30.06F

 IN MA

CITY           SKY/WX    TMP DP  RH WIND       PRES   REMARKS
BOSTON         PTSUNNY   71  56  58 E14       30.05F
WORCESTER      MOSUNNY   84  52  33 SW10G17   30.07F
WESTFIELD      PTSUNNY   88  57  34 S10       30.02F
PROVINCETOWN   CLOUDY    79  58  48 SE8       30.08S
NANTUCKET      CLOUDY    72  55  55 S7        30.09S
$$

ANZ330-335-338-340-345-350-353-355-262000-
COASTAL MARINE OBSERVATIONS


STATION/POSITION TIME  SKY/WX   TEMP    WIND        PRES    VSBY  WAVE
                                AIR SEA DIR/SP/G                  HT/PER
                 (UTC)          (F)     (DEG/KT/KT) (MB)    (MI)  (FT/S)
NY HARB ENTRANCE 1750            65 62  180/ 10/ 12 1017.9          2/ 8
20S FIRE ISLAND  1750            62 60  200/ 10/ 10 1018.4          2/ 8
GREAT SOUTH BAY  1800            68 68  190/  6/  8   N/A
23 SSW MONTAUK P 1850            61 58  210/  6/  6 1018.2          2/ 8
15 E BARNEGAT LI 1822               58                N/A           2/ 8
HUDSON CANYON    1750            60 57              1019.6          2/10
KINGS POINT      1800            76 59              1017.1
EXECUTION ROCKS  NOT AVBL
CENTRAL LI SOUND 1800            70      60/  4/  4   N/A           0
EASTERN LI SOUND 1800            64 53   CALM  /  2   N/A
ROBBINS REEF     1800            73     190/ 11/ 14 1016.9
$$


>>>>>>>>>>>>>>>>>>>>>>>>>>>> KEY <<<<<<<<<<<<<<<<<<<<<<<<<<<
>                                                          <
>     SKY/WX - SKY CONDITION/PRESENT WEATHER               <
>     TMP    - TEMPERATURE IN FAHRENHEIT                   <
>     DP     - DEWPOINT IN FAHRENHEIT                      <
>     RH     - RELATIVE HUMIDITY IN PERCENT                <
>     WIND   - DIRECTION AND SPEED IN MPH                  <
>     PRES   - MEAN SEA LEVEL PRESSURE IN INCHES OF HG     <
>     WCI    - WIND CHILL INDEX                            <
>     VSB    - VISIBILITY IN MILES                         <
>     HX     - HEAT INDEX                                  <
>     TC     - TEMPERATURE IN CELSIUS                      <
>     VRB    - VARIABLE WIND DIRECTION                     <
>                                                          <
>>>>>>>>>>>>>>>>>>>>>>>>>>>> KEY <<<<<<<<<<<<<<<<<<<<<<<<<<<





USA.gov is the U.S. government's official web portal to all federal, state and local government web resources and services.